Satellite: RS-30
Catalog number: 32953
Epoch time:      11013.60861912
Element set:     384
Inclination:      082.5011 deg
RA of node:       258.8296 deg
Eccentricity:    0.0019540
Arg of perigee:   005.9994 deg
Mean anomaly:     354.1318 deg
Mean motion:   12.43010353 rev/day
Decay rate:        1.0e-07 rev/day^2
Epoch rev:           11988
Checksum:              277

Satellite: TACSAT-3
Catalog number: 35001
Epoch time:      11012.48983316
Element set:    0486
Inclination:      040.4550 deg
RA of node:       034.6100 deg
Eccentricity:    0.0021411
Arg of perigee:   132.5067 deg
Mean anomaly:     227.7561 deg
Mean motion:   15.44402197 rev/day
Decay rate:      7.144e-05 rev/day^2
Epoch rev:           09297
Checksum:              261

Satellite: PHARMSAT
Catalog number: 35002
Epoch time:      11012.45432056
Element set:     445
Inclination:      040.4692 deg
RA of node:       032.3281 deg
Eccentricity:    0.0023264
Arg of perigee:   135.7779 deg
Mean anomaly:     224.4901 deg
Mean motion:   15.44649281 rev/day
Decay rate:      6.104e-05 rev/day^2
Epoch rev:            9299
Checksum:              271

Satellite: HAWKSAT1
Catalog number: 35003
Epoch time:      11012.41086743
Element set:     485
Inclination:      040.4580 deg
RA of node:       018.7777 deg
Eccentricity:    0.0022573
Arg of perigee:   162.1528 deg
Mean anomaly:     198.0090 deg
Mean motion:   15.50952740 rev/day
Decay rate:     1.7760e-04 rev/day^2
Epoch rev:            9314
Checksum:              279

Satellite: CP6
Catalog number: 35004
Epoch time:      11013.38186984
Element set:     488
Inclination:      040.4594 deg
RA of node:       009.3329 deg
Eccentricity:    0.0022522
Arg of perigee:   176.2385 deg
Mean anomaly:     183.8609 deg
Mean motion:   15.53096643 rev/day
Decay rate:     2.0109e-04 rev/day^2
Epoch rev:            9332
Checksum:              301

Satellite: AEROCUB3
Catalog number: 35005
Epoch time:      11006.09222617
Element set:     610
Inclination:      040.4461 deg
RA of node:       021.7975 deg
Eccentricity:    0.0025578
Arg of perigee:   084.1677 deg
Mean anomaly:     280.7191 deg
Mean motion:   16.39196088 rev/day
Decay rate:  1.4049365e-01 rev/day^2
Epoch rev:            9254
Checksum:              305

Satellite: METEOR-M
Catalog number: 35865
Epoch time:      11013.68608392
Element set:       8
Inclination:      098.7305 deg
RA of node:       070.6572 deg
Eccentricity:    0.0003064
Arg of perigee:   106.5994 deg
Mean anomaly:     253.5457 deg
Mean motion:   14.21834054 rev/day
Decay rate:       1.76e-06 rev/day^2
Epoch rev:            6863
Checksum:              299

Satellite: RS-38
Catalog number: 35869
Epoch time:      11013.70452771
Element set:      21
Inclination:      098.7281 deg
RA of node:       070.7159 deg
Eccentricity:    0.0005247
Arg of perigee:   111.3818 deg
Mean anomaly:     248.7879 deg
Mean motion:   14.21998097 rev/day
Decay rate:       1.77e-06 rev/day^2
Epoch rev:            6864
Checksum:              333

/EX


_______________________________________________
Via the Keps mailing list courtesy of AMSAT-NA
http://amsat.org/mailman/listinfo/keps

--- ViaMAIL!/WC v1.60d
 * Origin: Chowdanet (401-724-4410) telnet://chowdanet.com  (1:323/120)